Location: Unspecified
(0.0000°N, 0.0000°E)
Time: 23:38:16
(UTC+00:00)

Tiros 1 - All Passes

Search period start: 12 December 2018 00:00
Search period end: 22 December 2018 00:00
Orbit: 631 x 664 km, 48.4° (Epoch: 12 December)

Date Brightness Start Highest point End Pass type
(mag) Time Alt. Az. Time Alt. Az. Time Alt. Az.
12 Dec - 07:55:32 10° NNE 07:58:24 16° NE 08:01:16 10° E daylight
12 Dec - 09:35:56 10° WNW 09:40:27 42° SW 09:45:00 10° SSE daylight
12 Dec - 20:07:39 10° S 20:11:34 27° SE 20:15:27 10° ENE visible
12 Dec - 21:49:58 10° WSW 21:53:35 22° NW 21:57:10 10° N night (unlit)
13 Dec - 08:19:52 10° NNW 08:24:28 50° NE 08:29:08 10° SE daylight
13 Dec - 10:04:15 10° W 10:06:34 13° SW 10:08:55 10° SSW daylight
13 Dec - 20:32:58 10° SW 20:37:38 88° NW 20:42:14 10° NE visible
14 Dec - 07:06:00 10° NNE 07:08:27 14° NE 07:10:54 10° E daylight
14 Dec - 08:45:56 10° NW 08:50:31 47° SW 08:55:09 10° SSE daylight
14 Dec - 19:17:54 10° S 19:21:39 24° SE 19:25:21 10° ENE visible
14 Dec - 20:59:51 10° WSW 21:03:40 25° NW 21:07:27 10° N visible
15 Dec - 07:30:01 10° NNW 07:34:33 44° NE 07:39:06 10° ESE daylight
15 Dec - 09:13:53 10° W 09:16:38 15° SW 09:19:23 10° SSW daylight
15 Dec - 19:43:03 10° SW 19:47:42 82° SE 19:52:19 10° NE visible
16 Dec - 06:16:36 10° NNE 06:18:30 12° NE 06:20:25 10° ENE daylight
16 Dec - 07:55:56 10° NW 08:00:35 54° SW 08:05:16 10° SSE daylight
16 Dec - 18:28:10 10° S 18:31:43 21° SE 18:35:14 10° E visible
16 Dec - 20:09:44 10° WSW 20:13:44 28° NW 20:17:43 10° N visible
17 Dec - 06:40:12 10° NNW 06:44:37 38° NE 06:49:04 10° ESE daylight
17 Dec - 08:23:35 10° W 08:26:41 17° SW 08:29:47 10° S daylight
17 Dec - 18:53:08 10° SSW 18:57:48 72° SE 19:02:24 10° NE visible
18 Dec - 05:27:32 10° NE 05:28:33 11° NE 05:29:36 10° ENE visible
18 Dec - 07:05:58 10° NW 07:10:38 61° SW 07:15:23 10° SSE daylight
18 Dec - 17:38:28 10° S 17:41:47 19° SE 17:45:05 10° E daylight
18 Dec - 19:19:40 10° WSW 19:23:49 32° NW 19:27:56 10° NNE visible
19 Dec - 05:50:24 10° NNW 05:54:41 34° NE 05:59:00 10° ESE daylight
19 Dec - 07:33:22 10° W 07:36:43 19° SW 07:40:07 10° S daylight
19 Dec - 18:03:14 10° SSW 18:07:52 63° SE 18:12:27 10° NE daylight
20 Dec - 06:16:00 10° NW 06:20:42 70° SW 06:25:28 10° SSE daylight
20 Dec - 16:48:48 10° S 16:51:52 17° SE 16:54:52 10° E daylight
20 Dec - 18:29:36 10° WSW 18:33:54 36° NW 18:38:09 10° NNE visible
21 Dec - 05:00:37 10° N 05:04:45 30° NE 05:08:55 10° ESE visible
21 Dec - 06:43:12 10° W 06:46:47 21° SW 06:50:25 10° S daylight
21 Dec - 17:13:21 10° SSW 17:17:57 55° SE 17:22:29 10° NE daylight
21 Dec - 18:58:35 10° WNW 19:00:00 11° NW 19:01:25 10° NNW visible
